Weather History for KBDH - March, 2014

Change the Weather History Date:

Friday, March 14, 2014

  Actual Average (KLJF) Record (KLJF)
Temperature  
Mean Temperature 34 °F -  
Max Temperature 42 °F 37 °F 69 °F (2012)
Min Temperature 26 °F 21 °F -13 °F (1993)
Degree Days  
Heating Degree Days 31    
Moisture  
Dew Point 29 °F    
Average Humidity 76    
Maximum Humidity 87    
Minimum Humidity 60    
Precipitation  
Precipitation 0.00 in - - ()
Sea Level Pressure  
Sea Level Pressure 29.75 in    
Wind  
Wind Speed 15 mph (NW)    
Max Wind Speed 28 mph    
Max Gust Speed 34 mph    
Visibility 10 miles    
Events      
Averages and records for this station are not official NWS values.
T = Trace of Precipitation, MM = Missing Value Source: NWS Daily Summary

Daily Weather History Graph

Daily Weather History Graph

Search for Another Location

Airport or City:

Trip Planner

Search our weather history database for the weather conditions in past years. The results will help you decide how hot, cold, wet, or windy it might be!

Date:

Astronomy

Mar. 14, 2014 Rise Set
Actual Time 7:34 AM CDT 7:25 PM CDT
Civil Twilight 7:05 AM CDT 7:54 PM CDT
Nautical Twilight 6:31 AM CDT 8:28 PM CDT
Astronomical Twilight 5:56 AM CDT 9:03 PM CDT
Moon 5:45 PM CDT (3/14) 6:19 AM CDT (3/14)
Length of Visible Light 12h 49m
Length of Day
11h 50m
Waxing Gibbous, 96% of the Moon is Illuminated
Mar 14
Waxing Gibbous
Mar 16
Full
Mar 23
Last Quarter
Mar 30
New
Apr 7
First Quarter

Hourly Weather History & Observations

Time (CDT) Temp. Windchill Dew Point Humidity Pressure Visibility Wind Dir Wind Speed Gust Speed Precip Events Conditions
12:15 AM 42.8 °F 36.2 °F 33.8 °F 70% 29.56 in 10.0 mi NW 12.7 mph - N/A   Clear
12:35 AM 42.8 °F 35.4 °F 33.8 °F 70% 29.56 in 10.0 mi NW 15.0 mph - N/A   Clear
12:56 AM 41.0 °F 34.7 °F 33.8 °F 76% 29.56 in 10.0 mi WNW 10.4 mph - N/A   Clear
1:15 AM 41.0 °F 33.9 °F 33.8 °F 76% 29.56 in 10.0 mi WNW 12.7 mph - N/A   Clear
1:36 AM 39.2 °F 30.8 °F 32.0 °F 75% 29.57 in 10.0 mi NW 15.0 mph - N/A   Clear
1:55 AM 39.2 °F 31.2 °F 32.0 °F 75% 29.57 in 10.0 mi NW 13.8 mph - N/A   Clear
2:16 AM 39.2 °F 30.8 °F 32.0 °F 75% 29.58 in 10.0 mi WNW 15.0 mph 18.4 mph N/A   Clear
2:35 AM 37.4 °F 27.8 °F 30.2 °F 75% 29.59 in 10.0 mi WNW 17.3 mph - N/A   Clear
2:56 AM 37.4 °F 28.9 °F 30.2 °F 75% 29.59 in 10.0 mi WNW 13.8 mph - N/A   Clear
3:15 AM 37.4 °F 28.9 °F 30.2 °F 75% 29.60 in 10.0 mi WNW 13.8 mph - N/A   Clear
3:36 AM 35.6 °F 26.6 °F 28.4 °F 75% 29.60 in 10.0 mi WNW 13.8 mph - N/A   Scattered Clouds
3:55 AM 35.6 °F 27.5 °F 28.4 °F 75% 29.61 in 10.0 mi WNW 11.5 mph - N/A   Mostly Cloudy
4:16 AM 35.6 °F 27.1 °F 30.2 °F 81% 29.61 in 10.0 mi WNW 12.7 mph - N/A   Mostly Cloudy
4:35 AM 35.6 °F 27.1 °F 30.2 °F 81% 29.61 in 10.0 mi West 12.7 mph 18.4 mph N/A   Scattered Clouds
4:56 AM 35.6 °F 25.9 °F 30.2 °F 81% 29.61 in 10.0 mi WNW 16.1 mph 20.7 mph N/A   Clear
5:15 AM 35.6 °F 26.2 °F 30.2 °F 81% 29.61 in 10.0 mi WNW 15.0 mph - N/A   Clear
5:35 AM 35.6 °F 27.1 °F 30.2 °F 81% 29.62 in 10.0 mi WNW 12.7 mph 21.9 mph N/A   Clear
5:55 AM 35.6 °F 26.2 °F 30.2 °F 81% 29.62 in 10.0 mi WNW 15.0 mph - N/A   Clear
6:15 AM 35.6 °F 26.2 °F 30.2 °F 81% 29.63 in 10.0 mi West 15.0 mph - N/A   Clear
6:36 AM 35.6 °F 26.6 °F 30.2 °F 81% 29.63 in 10.0 mi WNW 13.8 mph - N/A   Clear
6:55 AM 35.6 °F 26.6 °F 30.2 °F 81% 29.64 in 10.0 mi West 13.8 mph - N/A   Clear
7:15 AM 35.6 °F 26.2 °F 30.2 °F 81% 29.64 in 10.0 mi WNW 15.0 mph - N/A   Clear
7:36 AM 35.6 °F 26.6 °F 30.2 °F 81% 29.65 in 10.0 mi WNW 13.8 mph - N/A   Clear
7:55 AM 35.6 °F 26.6 °F 30.2 °F 81% 29.65 in 10.0 mi WNW 13.8 mph - N/A   Mostly Cloudy
8:15 AM 35.6 °F 27.1 °F 30.2 °F 81% 29.66 in 10.0 mi WNW 12.7 mph 18.4 mph N/A   Overcast
8:36 AM 35.6 °F 27.1 °F 30.2 °F 81% 29.67 in 10.0 mi WNW 12.7 mph 20.7 mph N/A   Overcast
8:55 AM 35.6 °F 26.6 °F 30.2 °F 81% 29.68 in 10.0 mi WNW 13.8 mph - N/A   Overcast
9:15 AM 35.6 °F 27.1 °F 30.2 °F 81% 29.68 in 10.0 mi WNW 12.7 mph - N/A   Overcast
9:36 AM 35.6 °F 27.5 °F 30.2 °F 81% 29.69 in 10.0 mi WNW 11.5 mph - N/A   Mostly Cloudy
9:55 AM 35.6 °F 26.6 °F 30.2 °F 81% 29.69 in 10.0 mi WNW 13.8 mph 19.6 mph N/A   Mostly Cloudy
10:15 AM 37.4 °F 28.9 °F 32.0 °F 81% 29.69 in 10.0 mi WNW 13.8 mph - N/A   Overcast
10:35 AM 37.4 °F 28.2 °F 32.0 °F 81% 29.70 in 10.0 mi WNW 16.1 mph 20.7 mph N/A   Overcast
10:55 AM 37.4 °F 27.5 °F 33.8 °F 87% 29.71 in 10.0 mi WNW 18.4 mph 21.9 mph N/A   Overcast
11:16 AM 37.4 °F 27.8 °F 33.8 °F 87% 29.72 in 10.0 mi WNW 17.3 mph 23.0 mph N/A   Overcast
11:35 AM 37.4 °F 27.2 °F 33.8 °F 87% 29.73 in 10.0 mi WNW 19.6 mph 27.6 mph N/A   Overcast
11:55 AM 37.4 °F 27.8 °F 33.8 °F 87% 29.73 in 10.0 mi WNW 17.3 mph 23.0 mph N/A   Light Drizzle
12:16 PM 37.4 °F 27.2 °F 33.8 °F 87% 29.75 in 10.0 mi NW 19.6 mph 27.6 mph N/A   Overcast
12:35 PM 39.2 °F 29.0 °F 33.8 °F 81% 29.75 in 10.0 mi NW 21.9 mph 29.9 mph N/A   Overcast
12:55 PM 41.0 °F 30.9 °F 33.8 °F 76% 29.75 in 10.0 mi WNW 24.2 mph 28.8 mph N/A   Mostly Cloudy
1:16 PM 42.8 °F 33.5 °F 32.0 °F 66% 29.75 in 10.0 mi NW 23.0 mph 31.1 mph N/A   Scattered Clouds
1:35 PM 42.8 °F 32.7 °F 30.2 °F 61% 29.76 in 10.0 mi WNW 27.6 mph 34.5 mph N/A   Scattered Clouds
1:55 PM 41.0 °F 30.7 °F 30.2 °F 65% 29.77 in 10.0 mi WNW 25.3 mph 34.5 mph N/A   Scattered Clouds
2:15 PM 41.0 °F 30.9 °F 32.0 °F 70% 29.77 in 10.0 mi NW 24.2 mph 29.9 mph N/A   Scattered Clouds
2:35 PM 39.2 °F 28.0 °F 30.2 °F 70% 29.77 in 10.0 mi NW 26.5 mph 33.4 mph N/A   Mostly Cloudy
2:55 PM 39.2 °F 28.0 °F 30.2 °F 70% 29.78 in 10.0 mi NW 26.5 mph 32.2 mph N/A   Scattered Clouds
3:15 PM 37.4 °F 26.1 °F 30.2 °F 75% 29.80 in 10.0 mi NW 24.2 mph 33.4 mph N/A   Mostly Cloudy
3:35 PM 37.4 °F 25.9 °F 30.2 °F 75% 29.81 in 10.0 mi NW 25.3 mph 29.9 mph N/A   Overcast
3:55 PM 35.6 °F 23.7 °F 28.4 °F 75% 29.82 in 10.0 mi NW 24.2 mph 31.1 mph N/A   Mostly Cloudy
4:15 PM 37.4 °F 25.9 °F 28.4 °F 70% 29.82 in 10.0 mi NW 25.3 mph 34.5 mph N/A   Mostly Cloudy
4:35 PM 35.6 °F 23.2 °F 28.4 °F 75% 29.82 in 10.0 mi NW 26.5 mph 31.1 mph N/A   Scattered Clouds
4:55 PM 35.6 °F 24.0 °F 26.6 °F 70% 29.83 in 10.0 mi NW 23.0 mph 32.2 mph N/A   Clear
5:15 PM 35.6 °F 24.8 °F 26.6 °F 70% 29.84 in 10.0 mi NW 19.6 mph 26.5 mph N/A   Clear
5:36 PM 35.6 °F 24.5 °F 24.8 °F 65% 29.84 in 10.0 mi NNW 20.7 mph - N/A   Clear
5:55 PM 35.6 °F 25.5 °F 24.8 °F 65% 29.86 in 10.0 mi NW 17.3 mph 23.0 mph N/A   Clear
6:16 PM 35.6 °F 25.2 °F 23.0 °F 60% 29.87 in 10.0 mi NNW 18.4 mph - N/A   Clear
6:35 PM 33.8 °F 22.8 °F 23.0 °F 65% 29.88 in 10.0 mi NW 18.4 mph - N/A   Clear
6:56 PM 33.8 °F 23.2 °F 23.0 °F 65% 29.89 in 10.0 mi NW 17.3 mph - N/A   Clear
7:15 PM 32.0 °F 21.6 °F 23.0 °F 69% 29.90 in 10.0 mi NW 15.0 mph - N/A   Clear
7:36 PM 32.0 °F 21.6 °F 24.8 °F 75% 29.91 in 10.0 mi NW 15.0 mph - N/A   Clear
7:55 PM 30.2 °F 19.8 °F 24.8 °F 80% 29.92 in 10.0 mi NW 13.8 mph - N/A   Scattered Clouds
8:16 PM 30.2 °F 20.8 °F 24.8 °F 80% 29.93 in 10.0 mi NW 11.5 mph - N/A   Scattered Clouds
8:35 PM 30.2 °F 19.8 °F 24.8 °F 80% 29.93 in 10.0 mi NW 13.8 mph - N/A   Scattered Clouds
8:55 PM 30.2 °F 20.2 °F 23.0 °F 75% 29.94 in 10.0 mi NW 12.7 mph - N/A   Scattered Clouds
9:15 PM 28.4 °F 17.5 °F 23.0 °F 80% 29.95 in 10.0 mi NNW 13.8 mph - N/A   Clear
9:35 PM 28.4 °F 18.5 °F 23.0 °F 80% 29.95 in 10.0 mi NNW 11.5 mph - N/A   Clear
9:56 PM 28.4 °F 19.7 °F 21.2 °F 74% 29.95 in 10.0 mi NNW 9.2 mph - N/A   Clear
10:15 PM 28.4 °F 20.4 °F 21.2 °F 74% 29.97 in 10.0 mi NNW 8.1 mph - N/A   Clear
10:35 PM 28.4 °F 21.2 °F 21.2 °F 74% 29.97 in 10.0 mi NNW 6.9 mph - N/A   Clear
10:55 PM 26.6 °F 18.2 °F 21.2 °F 80% 29.98 in 10.0 mi NW 8.1 mph - N/A   Clear
11:15 PM 26.6 °F 18.2 °F 19.4 °F 74% 29.98 in 10.0 mi NW 8.1 mph - N/A   Clear
11:36 PM 26.6 °F 19.1 °F 19.4 °F 74% 29.99 in 10.0 mi NW 6.9 mph - N/A   Clear
11:55 PM 26.6 °F 20.0 °F 19.4 °F 74% 29.99 in 10.0 mi NNW 5.8 mph - N/A   Clear